RH
40 36 38 36 38 39 37 37 41 51 53 47 38 37 44 54 65 70 82 89 91 91 71 69 72 68 73 81 87 92 97 89 96 82 70 65 62 55 60 53 48 46 59 69 75 71 52 29 27 25 22 21 19 19
37 38 38 45 49 47 46 47 51 58 63 65 50 39 45 53 64 76 80 88 96 99 84 87 74 60 70 74 81 84 98 98 97 95 78 67 62 55 56 68 63 61 43 49 58 61 46 33 30 26 26 23 21 19
37 40 42 50 50 51 51 54 57 62 65 70 69 43 43 53 63 74 86 90 93 87 72 68 60 60 59 64 66 86 91 98 98 97 97 93 77 58 56 56 70 82 66 50 49 50 51 42 37 29 28 26 23 20
40 40 46 50 53 57 57 57 59 61 63 72 79 68 44 50 64 71 84 96 94 91 94 75 81 77 61 51 61 61 78 92 94 97 93 95 89 88 67 61 68 79 79 77 64 57 51 50 42 33 30 28 25 21
39 42 48 53 59 66 69 68 68 70 80 86 85 83 59 48 56 62 79 90 93 98 94 96 79 84 81 55 49 56 62 84 87 92 94 96 92 95 88 82 69 65 73 85 77 71 65 61 54 40 33 31 28 24
41 46 50 57 65 71 79 85 87 84 87 90 96 95 86 54 52 64 72 72 85 91 93 78 80 89 70 58 54 57 55 64 76 86 93 92 86 88 95 86 68 73 74 70 72 74 73 68 67 55 40 35 35 32
53 62 72 83 88 92 95 96 96 86 82 81 83 94 94 74 53 62 70 87 98 93 88 80 75 73 68 77 65 52 69 69 69 82 81 86 86 92 86 71 64 69 69 72 70 75 70 68 67 59 49 42 36 36
73 76 81 91 99 98 97 98 97 88 93 85 81 93 96 81 57 64 66 70 95 96 90 80 71 78 81 76 71 63 57 68 75 70 73 74 80 81 74 56 61 67 73 73 78 75 79 73 72 73 61 52 45 39
68 69 73 82 94 97 94 98 96 91 88 79 83 99 99 89 64 58 71 81 85 91 98 81 69 85 90 71 79 77 72 73 64 62 60 63 67 68 58 56 58 61 67 76 76 77 76 70 70 80 70 59 52 48
70 74 80 84 79 80 86 92 94 91 89 87 86 99 84 77 61 70 82 86 84 86 80 75 78 88 90 83 82 83 86 78 74 68 64 56 45 51 54 57 61 64 67 70 81 83 78 79 74 69 67 65 68 60
74 82 86 86 89 87 77 82 93 98 93 98 98 98 94 85 78 88 85 76 78 80 63 50 54 72 93 95 90 86 86 83 81 64 60 55 51 41 44 41 37 48 59 65 66 71 81 81 75 68 66 70 73 76
86 90 94 97 98 95 92 89 87 88 90 96 97 99 98 96 88 88 82 75 79 80 71 62 46 52 74 90 85 84 80 73 63 54 57 51 47 49 61 64 57 52 46 54 62 68 74 77 74 74 70 70 68 73
86 86 93 95 95 98 95 90 81 81 94 97 99 98 94 94 96 83 72 59 60 71 72 68 70 69 80 73 81 77 76 64 54 53 44 46 50 47 52 54 64 63 68 58 43 53 68 74 78 74 70 70 74 69
89 95 84 85 86 94 95 89 76 75 95 98 97 91 88 93 73 62 57 53 54 60 61 78 80 85 80 82 79 76 64 60 48 45 55 63 64 63 62 70 72 69 61 57 54 55 54 60 63 65 64 69 71 72
90 81 95 97 97 93 96 94 72 67 90 98 94 88 65 57 60 60 62 66 60 68 84 75 70 69 77 75 73 70 70 63 54 53 62 68 59 55 46 64 81 86 68 56 57 48 48 53 54 52 52 54 55 61
77 76 84 79 86 95 95 98 85 82 89 93 79 77 67 62 64 70 69 65 81 88 86 62 63 87 84 81 74 68 60 54 53 58 64 58 64 40 36 40 56 59 65 50 48 48 43 43 48 49 51 54 55 53
74 72 92 95 87 94 99 94 87 81 86 85 80 77 81 81 78 80 78 82 84 79 70 69 85 82 78 74 63 61 57 53 56 56 52 50 69 50 44 46 42 40 43 39 38 39 44 41 39 35 34 42 55 53
75 83 85 83 88 90 94 93 89 80 74 67 70 77 71 70 74 85 80 78 72 71 62 66 70 72 73 64 61 64 68 62 61 58 62 55 53 51 50 49 43 37 30 28 35 46 43 39 33 32 34 35 45 55
71 76 81 86 95 97 88 84 87 76 68 73 68 67 59 56 62 66 65 59 58 63 67 69 79 63 58 68 75 74 63 66 76 69 74 76 62 62 58 49 47 52 54 41 50 56 50 43 41 37 38 38 33 50
61 67 71 72 78 93 82 81 79 83 75 70 67 63 64 69 72 68 62 66 69 70 75 72 65 65 71 79 76 83 79 82 72 84 88 76 76 76 65 67 54 55 65 66 69 62 58 54 52 53 53 49 38 34
72 77 68 70 75 78 78 77 70 77 81 78 71 69 73 73 75 80 83 85 86 83 77 69 71 76 77 77 80 77 81 70 65 73 80 79 72 71 77 84 87 84 81 78 77 74 71 68 75 86 72 60 61 50
90 86 82 84 79 81 81 79 84 87 93 87 86 90 88 89 90 92 92 92 88 81 84 85 86 84 85 79 73 71 62 65 76 82 79 76 79 87 92 96 98 98 99 98 97 92 87 96 98 93 88 75 63 58
78 87 93 98 96 90 90 93 96 96 97 93 93 95 94 92 87 84 87 86 85 86 86 86 87 84 78 74 77 73 81 82 79 75 78 84 91 96 98 98 98 98 98 96 93 90 86 86 85 84 83 71 67 63
69 79 90 89 90 91 87 90 95 96 97 96 94 97 98 98 93 90 89 84 81 74 76 82 85 86 80 72 68 68 72 76 82 90 97 98 94 95 97 98 98 94 89 86 85 88 88 87 82 76 73 69 63 60
65 74 77 79 79 74 71 67 74 81 89 87 89 92 97 93 96 97 95 95 95 92 84 80 80 79 79 79 85 89 93 97 98 98 98 98 96 93 91 85 83 83 83 84 84 81 76 77 80 83 82 77 71 67
58 64 67 72 76 74 70 68 61 58 69 80 80 81 89 94 94 96 95 92 93 94 95 97 98 98 98 96 96 96 97 96 91 90 89 86 84 79 73 68 66 64 64 66 71 75 75 74 73 74 74 75 76 75
50 52 56 64 67 68 69 70 64 59 55 63 78 75 81 91 94 92 91 89 88 89 88 90 94 95 95 94 92 89 86 84 82 80 79 76 75 73 72 69 66 64 63 64 65 70 72 73 74 76 77 79 82 83
46 48 50 52 58 63 67 69 70 64 56 49 55 79 76 77 86 87 87 84 85 86 88 87 84 82 83 83 82 81 79 77 75 74 73 72 69 66 65 64 64 63 66 70 71 71 71 73 77 82 87 88 88 91
48 50 50 51 52 56 60 64 65 65 60 50 50 52 63 70 70 70 72 79 85 88 88 86 85 85 83 80 79 77 76 74 71 69 68 67 67 67 68 69 70 72 75 77 80 80 81 85 87 90 96 97 97 97
54 55 56 54 53 52 55 62 65 66 62 55 46 42 40 44 45 50 61 68 71 72 76 82 87 87 87 88 88 85 80 76 73 72 72 74 75 77 80 81 83 85 86 87 92 93 96 96 95 94 95 95 94 93
59 58 62 63 61 59 58 59 63 63 64 58 45 43 46 49 50 52 52 53 56 60 66 72 75 77 78 79 80 78 78 80 81 83 83 82 82 79 79 78 80 82 82 83 81 78 75 73 76 76 73 72 69 68
52 54 60 60 64 62 64 63 63 66 67 66 54 45 45 48 50 48 48 51 54 57 64 75 82 87 89 88 87 87 87 87 82 73 67 62 58 57 55 55 55 56 56 56 55 55 56 57 58 57 55 56 55 55
56 55 56 56 58 61 63 65 65 63 65 65 63 53 46 47 50 48 44 45 46 50 58 70 80 85 87 88 87 86 83 73 65 60 57 54 52 50 49 48 48 48 49 50 49 48 47 46 46 46 47 48 48 48